Location: Dos Palmas
(32.4468°N, 116.8732°W)
Time: 00:50:51
(UTC+00:00)

Meteor 1-24 Rocket - Pass Details

Date: 29 October 2021
Orbit: 790 x 927 km, 81.3° (Epoch: 07 December)

Event Time Altitude Azimuth Distance (km) Brightness Sun altitude
Rises 13:27:06 0° 217° (SW) 3,283 6.5 -8.1°
Reaches altitude 10° 13:29:51 10° 231° (SW) 2,368 5.7 -7.5°
Maximum altitude 13:34:12 25° 286° (WNW) 1,583 4.6 -6.7°
Drops below altitude 10° 13:38:40 10° 340° (NNW) 2,434 5.8 -5.7°
Sets 13:41:33 0° 354° (N) 3,395 6.6 -5.1°
